Regional Weather Roundup
Issued by NWS Goodland, KS

Home | Current Version | Previous Version | Text Only | Print | Product List | Glossary Off
Versions: 1 2 3 4 5 6 7 8 9 10 11 12 13 14 15 16 17 18 19 20 21 22 23 24 25 26 27 28 29 30 31 32 33 34 35 36 37 38 39 40 41 42 43 44 45 46 47 48 49 50

000
ASUS43 KGLD 211459
RWRGLD

GOODLAND FORECAST AREA HOURLY WEATHER ROUNDUP
NATIONAL WEATHER SERVICE GOODLAND KS
800 AM MST SUN DEC 21 2014

...OFFICIAL OBSERVATIONS...

CITY           SKY/WX    TMP DP  RH WIND       PRES   REMARKS
GOODLAND KS    CLEAR     31  27  85 W5        29.75F
HILL CITY KS   FOG       34  33  96 S14       29.81F VSB 1/2
IMPERIAL NEB   CLEAR     28  23  81 SW7       29.72F
MCCOOK NEB     CLEAR     31  28  89 SW8       29.75F
AKRON CO       PTCLDY    33  22  63 SW10      29.70F
BURLINGTON CO  CLEAR     29  23  78 W7        29.75F
LIMON CO       CLOUDY    23  19  85 CALM      29.74F
$$

...UNOFFICIAL OBSERVATIONS...

CITY           SKY/WX    TMP DP  RH WIND       PRES   REMARKS
GOVE KS          N/A     32  32 100 MISG        N/A
TRIBUNE KS       N/A     23  23 100 W3        29.78F VSB 1
KIT CARSON CO    N/A     26  22  86 MISG        N/A
YUMA CO          N/A     23  18  80 CALM        N/A
$$



USA.gov is the U.S. government's official web portal to all federal, state and local government web resources and services.